Temp
22 22 23 22 22 22 22 21 21 21 21 22 22 23 23 22 22 22 22 22 21 22 21 21 21 21 21 21 21 21 21 21 22 21 21 20 20 21 21 21 21 21 20
22 22 22 22 23 22 22 22 22 21 21 21 21 22 22 21 21 21 21 21 22 21 21 21 21 21 22 22 22 21 21 22 22 21 21 21 21 21 21 21 20 21 21
22 22 22 22 22 22 22 22 22 21 21 21 21 21 21 21 21 21 21 21 21 21 21 21 22 22 22 21 21 21 21 21 22 22 22 21 21 21 21 21 21 20 21
22 22 22 22 22 23 23 23 22 21 21 21 22 22 21 21 21 21 21 21 21 21 21 21 22 22 21 21 21 21 21 21 21 22 22 21 21 21 21 21 21 20 20
22 22 22 23 23 23 23 23 22 22 22 21 22 22 21 21 21 21 21 21 21 21 21 21 21 21 21 21 22 22 22 23 22 22 22 22 21 20 21 21 21 20 20
23 22 22 23 23 23 23 22 22 22 22 21 21 21 21 21 21 21 21 21 21 21 21 21 21 22 22 22 22 22 23 23 22 22 22 22 21 20 21 21 20 20 21
23 22 22 22 22 22 22 22 22 21 22 22 22 21 22 21 21 21 21 21 21 21 21 21 21 23 23 23 22 22 22 22 22 23 23 22 21 21 21 20 20 21 21
24 23 22 22 22 22 22 22 22 21 21 22 21 21 21 21 21 21 21 21 21 21 21 21 21 22 23 24 23 22 22 23 22 23 23 22 22 21 20 20 21 20 21
23 23 23 22 22 22 22 21 21 21 22 21 22 22 22 21 21 21 21 21 21 21 21 21 21 21 23 24 24 23 22 22 23 23 23 22 21 21 20 20 20 21 21
22 22 22 22 22 22 22 21 21 21 21 21 22 22 22 22 21 21 21 21 21 21 21 21 21 21 22 23 24 23 22 22 23 23 23 22 21 20 20 20 20 20 20
23 23 22 22 22 22 22 21 21 21 21 21 22 22 22 23 22 22 22 21 21 21 21 21 21 22 22 23 23 23 22 23 22 23 23 22 21 20 20 20 20 21 21
24 23 23 23 23 22 22 22 22 23 23 23 23 23 23 22 22 22 22 22 21 21 21 21 21 21 22 23 23 23 23 23 22 22 22 22 22 21 20 21 20 21 21
26 24 24 24 24 23 22 23 23 23 24 24 24 23 23 24 23 22 22 22 22 21 21 21 22 22 22 22 22 23 22 23 23 22 22 22 21 21 20 20 20 21 21
27 26 25 25 25 24 24 24 24 23 23 24 23 24 24 24 23 23 23 23 23 23 22 22 23 23 22 22 22 21 22 20 21 21 22 22 21 21 20 20 20 20 21
29 27 26 26 26 26 25 25 25 25 24 24 24 24 24 24 24 24 24 23 23 23 23 23 23 22 22 23 23 21 21 22 21 21 22 22 21 21 20 20 20 21 22
30 28 27 27 27 26 26 26 26 26 26 25 25 25 25 25 25 25 25 25 24 24 24 24 23 22 22 22 22 21 21 21 21 21 22 21 21 22 21 20 20 21 21
30 30 28 28 27 27 27 27 26 27 26 26 26 26 26 25 25 25 25 25 24 24 24 23 23 23 22 22 22 22 21 21 21 21 21 21 21 22 22 21 21 22 21
30 28 28 28 28 28 27 27 27 27 27 27 27 26 26 25 25 24 24 24 24 23 24 23 23 22 21 22 22 22 21 21 21 21 21 21 21 21 21 21 21 21 22
30 28 28 27 28 28 27 27 27 27 27 27 27 26 26 26 25 25 24 24 24 24 23 23 22 22 21 21 20 21 21 21 21 20 21 21 21 21 21 21 21 21 20
30 29 28 28 27 28 28 27 27 27 27 26 27 26 26 25 25 25 25 24 24 23 23 22 22 21 21 21 20 20 21 22 21 21 20 20 20 20 21 21 21 21 20
31 29 29 29 27 27 26 26 26 27 27 27 27 28 26 25 24 24 24 24 23 23 23 22 22 22 21 21 20 19 20 21 21 21 21 21 21 21 20 20 21 21 21
31 30 29 29 28 27 26 26 26 26 27 27 27 27 26 25 25 24 24 24 23 23 22 22 22 22 21 21 20 20 19 20 20 20 20 20 21 21 20 20 21 21 22
31 30 29 28 28 27 26 26 26 26 26 27 27 27 26 25 25 24 24 24 23 23 23 22 23 22 22 20 21 21 19 20 19 21 20 20 20 21 21 21 21 22 22
30 30 29 28 28 28 27 26 26 26 26 26 26 27 26 25 24 24 23 23 23 23 23 23 23 23 22 21 20 21 21 21 19 20 19 20 21 21 21 21 21 21 22
30 29 29 28 28 27 27 26 26 26 26 26 26 26 26 25 24 24 23 23 23 23 23 23 22 23 22 22 21 21 20 20 21 19 19 20 21 21 21 21 21 21 22
31 30 28 27 27 27 27 27 26 26 25 26 26 26 25 25 24 24 23 23 22 22 22 23 23 22 23 23 22 22 22 21 20 20 19 20 21 21 21 21 21 22 22
Height
795 796 798 800 802 806 809 812 814 816 818 819 820 821 822 824 826 827 828 828 829 830 832 832 834 835 836 838 840 842 842 843 844 844 846 848 849 849 850 851 852 855 855
790 796 798 800 802 806 809 812 816 818 820 822 823 824 825 826 828 829 829 830 830 832 833 834 836 837 838 840 842 843 844 845 846 847 849 850 851 852 853 853 855 857 858
790 795 798 800 803 806 810 812 816 819 821 823 825 826 827 828 829 830 830 832 832 834 835 837 840 841 843 845 845 846 848 849 850 850 852 852 853 855 856 856 858 860 861
789 794 798 800 804 807 810 813 817 820 822 824 826 827 829 830 831 831 831 833 835 836 838 840 841 843 845 846 847 849 850 851 852 853 854 856 857 857 858 859 861 862 863
793 795 798 800 804 808 811 814 818 820 823 826 827 829 830 832 832 832 833 835 837 838 840 842 844 845 847 848 849 850 850 852 853 855 856 858 860 861 862 862 864 864 865
795 796 798 801 805 808 812 815 818 820 824 827 829 830 831 833 834 836 836 837 839 840 842 844 845 847 848 849 850 852 852 854 855 857 858 859 861 863 865 866 866 866 867
793 797 799 802 806 809 812 815 819 821 823 827 830 832 833 834 835 838 839 840 841 843 844 846 846 847 850 852 853 855 856 856 858 858 859 862 863 865 867 867 868 869 870
790 797 800 804 807 810 813 816 819 822 825 827 829 832 834 835 837 839 841 843 844 845 846 846 848 849 851 854 855 857 858 858 860 861 860 862 865 868 868 869 870 871 871
789 793 799 804 808 811 814 817 819 822 825 827 829 831 833 836 838 840 842 844 846 847 848 848 849 852 854 854 856 859 860 861 862 862 862 863 865 869 870 871 872 872 873
792 796 799 803 808 811 814 817 820 822 825 828 829 831 833 836 839 841 842 845 846 848 849 850 851 853 855 856 856 858 860 860 863 863 864 866 868 869 872 872 872 874 875
792 797 800 802 807 810 813 816 819 821 825 827 830 831 834 837 839 840 842 844 846 849 850 851 851 853 854 854 856 857 860 859 861 863 865 867 868 871 874 874 873 874 876
788 795 797 801 805 808 812 814 817 819 822 825 829 831 834 837 839 841 841 843 846 848 850 850 851 853 853 854 856 857 857 859 861 863 866 869 870 871 874 874 876 875 876
784 790 794 797 802 806 810 813 816 818 820 823 826 830 832 832 836 839 841 842 844 847 848 849 851 853 854 854 857 857 861 861 862 862 865 869 870 872 874 876 878 876 877
781 785 790 794 798 803 807 810 813 816 818 820 823 827 830 832 834 837 839 841 843 845 846 848 848 850 852 853 855 860 857 855 861 860 862 866 870 872 875 877 878 878 877
776 781 786 791 796 801 804 807 810 813 815 818 821 824 827 830 832 834 837 839 841 843 845 846 848 849 850 852 854 857 858 859 859 859 860 864 868 871 875 877 878 878 877
772 777 781 787 792 798 802 804 807 810 812 817 820 822 824 828 830 833 835 837 840 841 842 843 846 847 848 850 852 855 856 858 858 858 860 863 867 869 872 876 877 877 877
769 773 777 783 789 794 800 802 806 807 810 813 816 820 823 825 828 831 833 835 837 839 840 843 845 846 847 848 850 853 854 856 856 857 859 862 865 867 870 874 875 876 877
766 770 776 781 786 791 796 801 804 808 810 811 813 816 820 823 826 829 831 833 834 837 839 841 843 845 846 847 848 849 852 854 855 856 858 860 863 865 868 871 874 875 877
764 768 774 778 783 788 792 796 800 804 807 810 811 813 817 820 823 825 827 830 832 834 836 839 841 842 843 845 845 846 849 850 852 855 857 858 861 863 865 868 871 873 876
760 766 772 775 779 784 789 793 797 801 804 808 809 812 815 818 821 823 824 826 829 832 833 833 835 840 840 841 841 843 844 846 850 852 854 856 858 861 863 866 869 870 873
759 764 768 771 775 780 786 790 794 797 801 804 807 809 811 815 818 820 822 824 826 829 830 833 835 838 838 838 841 843 843 845 845 848 851 852 855 857 860 862 865 867 870
755 760 764 768 772 776 781 786 791 795 799 801 804 806 807 810 813 817 819 821 824 827 829 832 833 835 836 836 837 840 842 843 842 842 846 847 850 852 855 858 861 863 866
751 755 759 764 769 774 779 784 790 794 796 798 801 803 804 807 810 813 815 818 821 823 825 827 830 831 831 834 835 834 839 840 838 839 841 843 846 848 850 853 856 859 861
746 752 756 762 767 772 776 780 785 788 790 793 797 799 802 805 807 809 812 814 817 819 821 824 827 828 829 829 832 831 832 833 837 838 837 840 842 844 847 849 851 854 857
742 746 751 756 762 767 772 776 780 783 785 790 794 797 798 801 804 806 809 812 814 817 819 820 823 825 825 825 826 828 830 832 834 836 836 835 838 839 840 843 846 850 853
737 741 746 751 756 761 766 771 775 778 781 786 790 792 794 796 799 801 803 807 810 813 815 816 818 820 821 820 821 824 825 827 826 830 832 830 830 832 836 839 842 845 848
Wind_Speed
26 26 25 25 25 22 20 19 19 19 18 18 18 18 17 16 16 15 16 15 14 12 13 15 15 15 16 17 18 19 21 21 23 25 24 21 21 23 23 22 22 22 22
33 28 26 27 26 23 21 19 19 18 17 17 16 16 15 15 14 14 14 14 14 13 14 14 16 17 18 17 17 19 20 22 24 24 21 19 18 19 22 22 22 22 22
34 30 29 27 26 25 23 21 19 17 16 15 15 14 14 14 13 13 14 13 15 14 14 15 15 17 17 16 16 18 18 18 22 21 21 23 21 20 21 22 21 22 21
35 32 29 27 26 25 23 21 20 18 16 15 15 15 13 13 13 13 14 13 14 14 15 16 16 14 14 15 17 18 17 16 19 18 19 19 18 19 21 21 20 21 20
29 32 30 26 25 24 22 20 19 18 15 14 15 15 13 13 13 13 14 14 14 16 16 16 15 14 14 16 19 17 12 13 12 17 18 18 18 18 19 20 19 19 19
30 30 28 26 24 23 21 20 19 18 16 14 14 14 15 14 13 13 13 14 14 15 16 17 15 14 16 16 17 15 17 20 21 23 19 19 20 18 17 18 18 18 20
32 30 28 25 24 22 21 20 18 17 17 14 13 12 13 14 13 12 13 13 14 15 15 15 15 15 15 15 15 14 10 12 17 19 18 20 18 18 16 17 17 18 18
35 31 28 25 23 21 20 19 18 17 16 16 14 13 12 13 13 12 12 13 14 14 15 15 15 15 13 15 16 12 8 11 18 15 16 18 17 16 16 17 17 17 18
37 36 30 25 23 20 18 17 17 16 16 15 14 13 11 11 11 12 12 12 13 14 13 13 13 13 13 14 14 14 10 11 16 15 19 18 18 16 16 16 17 17 17
32 31 31 26 22 22 20 17 17 17 15 15 15 12 12 11 12 12 13 12 13 13 13 12 12 12 12 13 11 10 10 7 16 13 19 19 17 16 16 17 17 17 17
30 29 27 28 24 23 21 18 17 16 16 13 14 13 12 8 10 11 14 12 14 13 13 11 11 12 11 11 13 10 8 16 17 16 16 17 17 16 15 15 18 18 17
32 32 28 26 24 22 21 20 18 17 17 16 14 12 11 9 6 10 11 13 13 13 12 11 11 11 11 10 11 11 8 14 17 15 16 15 17 17 15 16 16 19 18
35 34 31 28 26 27 23 21 19 17 17 17 15 14 12 11 11 14 13 12 13 14 13 12 11 11 11 10 11 12 8 11 13 10 16 15 15 16 16 15 16 19 18
32 35 37 30 26 27 26 22 19 20 19 19 19 18 16 13 15 17 13 11 10 12 15 13 11 9 12 10 12 14 12 6 12 21 18 17 17 16 15 16 16 18 19
27 38 39 34 29 27 28 21 21 19 24 22 20 21 16 17 17 17 13 13 12 14 14 17 14 13 15 18 12 9 12 20 18 21 19 19 20 18 17 17 18 18 19
26 36 41 35 31 28 30 23 22 21 20 24 23 20 16 14 17 14 10 10 6 5 17 13 16 14 12 12 13 11 10 19 19 19 21 21 23 20 18 19 18 17 16
29 28 43 37 35 25 29 26 23 22 20 22 25 22 22 17 17 15 11 9 5 4 6 12 15 12 10 12 9 9 10 15 18 22 22 23 23 21 21 22 19 18 17
32 32 40 35 35 29 21 19 16 16 17 21 23 23 22 21 16 16 12 10 8 3 5 7 7 6 10 11 12 12 14 16 16 18 21 22 24 24 23 23 20 17 17
29 34 35 33 33 32 27 19 21 17 8 12 25 25 24 22 21 18 14 11 9 7 5 4 2 3 5 7 10 13 15 18 19 21 23 23 25 26 25 24 21 20 17
28 35 36 33 35 31 31 26 22 22 14 5 16 20 23 22 21 18 14 13 11 9 7 7 8 5 3 5 9 17 17 17 17 19 25 24 25 26 25 25 24 24 20
22 34 37 32 35 33 32 29 24 22 21 16 9 14 22 24 21 17 13 12 12 11 10 9 10 8 7 9 9 11 14 16 17 20 21 25 23 28 25 24 25 28 26
27 28 32 32 28 30 33 33 27 27 22 19 19 16 19 25 22 18 16 13 15 12 10 12 11 8 9 14 7 5 2 7 18 21 21 25 27 24 28 27 26 29 30
30 30 33 33 32 27 30 32 26 24 20 26 23 23 23 23 21 19 19 17 15 16 14 12 13 15 12 18 13 6 2 3 4 16 23 27 28 28 27 30 28 29 31
30 33 31 34 32 29 26 28 31 25 21 22 23 22 23 23 21 20 20 20 20 17 17 14 12 11 16 15 16 18 8 5 3 1 13 26 27 28 32 30 33 32 29
30 33 34 35 35 32 33 26 28 28 28 26 20 18 23 25 22 21 21 22 23 20 17 15 14 12 15 17 15 8 19 18 19 7 2 11 26 30 30 37 33 37 32
31 29 35 37 38 37 37 36 28 29 27 25 23 23 26 26 26 24 22 23 22 22 19 15 14 16 14 15 14 17 15 6 9 13 4 5 17 23 29 32 36 34 33
Wind_Direction
156 156 153 151 142 135 136 132 125 118 115 111 107 103 97 92 88 90 93 93 101 98 102 102 106 114 117 114 109 108 106 104 99 102 98 100 103 104 106 104 100 105 103
153 151 149 149 147 139 139 136 136 129 121 114 107 103 98 96 97 95 96 96 100 101 102 104 107 113 118 113 108 109 108 107 103 102 101 101 97 109 111 106 107 107 100
144 148 147 146 145 144 141 138 136 136 131 121 110 107 102 99 98 103 102 101 105 104 107 108 113 114 113 106 108 106 109 112 105 103 105 103 104 111 108 106 106 110 108
145 145 146 143 143 143 140 138 135 134 131 126 118 110 100 98 101 110 111 107 106 111 109 113 109 115 101 103 111 111 111 120 122 84 104 106 106 110 111 113 112 115 112
141 146 145 145 147 146 145 142 137 136 131 128 120 111 106 104 102 109 114 113 112 111 114 115 115 113 106 111 118 117 122 130 127 118 117 122 113 112 110 113 113 118 116
143 151 146 146 146 147 149 149 145 138 137 129 122 118 110 109 110 111 112 114 114 114 117 117 117 120 118 121 124 121 101 104 104 128 121 120 119 117 115 119 120 119 122
150 149 148 146 145 146 146 147 143 140 138 132 130 124 118 116 115 116 122 121 121 120 121 121 123 124 129 134 136 129 125 119 119 133 121 127 124 128 121 121 122 120 121
149 149 147 145 145 146 145 146 145 143 143 138 139 131 124 125 122 122 124 125 124 124 126 131 131 128 129 137 141 125 109 146 150 140 137 133 132 132 130 127 124 124 123
145 149 148 148 147 149 150 150 149 147 149 144 148 142 137 133 134 130 126 125 128 130 130 135 138 136 133 144 147 137 112 131 151 146 141 139 138 142 138 134 133 129 128
142 146 148 147 155 156 157 154 152 154 153 158 155 154 151 147 147 139 134 135 134 133 137 140 142 140 143 151 156 143 119 143 157 147 149 146 149 145 147 145 136 130 129
145 150 155 153 161 161 160 157 159 160 163 163 166 165 161 156 159 152 137 146 145 143 144 148 149 149 145 151 157 154 134 125 150 147 155 153 152 149 153 146 145 139 134
150 158 159 158 161 161 165 164 164 164 165 170 167 167 163 167 180 176 167 161 160 158 159 159 163 165 162 154 150 175 152 144 140 152 158 165 159 153 157 155 155 143 142
164 162 163 159 160 168 172 169 169 171 164 164 165 169 159 176 173 182 175 178 172 174 175 178 176 182 180 176 162 192 207 178 204 145 160 171 168 159 162 160 160 146 140
169 163 165 163 160 172 181 177 177 183 186 181 181 190 192 171 179 185 186 184 184 190 186 186 177 173 206 219 192 182 179 230 237 201 186 183 177 168 170 171 167 152 145
161 163 167 167 165 174 182 184 183 190 196 198 185 189 197 190 181 186 188 184 205 222 212 203 200 188 189 190 194 179 167 172 194 185 183 187 183 181 180 180 173 163 153
174 170 168 167 170 176 182 189 190 194 194 200 197 181 184 179 175 172 178 192 199 240 214 212 202 201 208 199 198 178 173 178 184 189 187 192 195 192 184 186 179 169 159
194 180 171 169 172 173 191 191 198 206 204 204 193 185 187 179 174 170 175 184 192 164 164 189 189 187 215 185 199 212 196 180 188 190 196 199 200 203 197 193 187 177 166
189 164 168 170 175 177 174 191 179 197 219 206 196 191 187 183 174 171 173 198 215 180 167 199 197 186 182 210 227 224 221 200 201 194 199 202 203 204 204 202 191 183 179
194 161 168 173 177 187 192 190 202 207 227 203 201 197 194 190 187 190 190 210 220 232 229 226 210 229 206 234 236 240 232 221 207 202 203 208 208 206 209 208 205 191 185
166 170 179 179 184 186 196 201 206 210 220 227 188 192 200 191 194 197 201 202 224 222 202 223 217 221 164 203 218 233 240 232 223 219 210 212 212 212 214 217 209 211 190
173 168 177 178 185 185 189 192 197 206 216 229 228 213 192 188 192 199 197 198 213 216 203 210 179 198 196 192 189 230 244 242 240 238 222 221 218 212 217 220 217 217 211
183 181 184 183 179 188 192 193 198 204 209 222 226 220 197 194 198 201 198 198 203 206 205 207 206 201 191 200 166 168 200 237 235 238 228 219 217 218 220 218 221 221 218
185 183 188 187 188 185 195 198 197 205 205 223 228 202 199 201 203 207 203 202 206 211 207 208 213 208 196 199 207 167 161 214 192 225 223 220 219 219 215 218 223 223 221
186 191 191 192 196 202 199 197 197 203 210 217 210 204 204 206 205 209 207 212 214 214 214 214 223 219 211 196 206 221 215 166 184 229 216 219 223 222 219 219 222 222 216
189 189 196 197 198 201 202 201 203 209 219 225 228 227 211 210 218 217 223 220 223 222 219 219 224 231 220 213 199 195 230 237 250 246 248 200 220 225 225 220 220 217 223
190 187 189 195 197 200 206 211 210 213 213 218 224 219 203 208 215 222 223 223 227 222 220 224 228 231 235 236 219 221 215 194 222 222 217 209 207 218 222 219 219 222 221